Time,TemperatureF,DewpointF,PressureIn,WindDirection,WindDirectionDegrees,WindSpeedMPH,WindSpeedGustMPH,Humidity,HourlyPrecipIn,Conditions,Clouds,dailyrainin,SoftwareType,DateUTC
2013-02-03 00:02:00,51.3,34.2,30.33,NNW,343,0.0,2.0,52,0.00,,,0.00,meteohub,2013-02-03 06:02:00,
2013-02-03 00:12:00,50.7,34.2,30.32,NNW,343,0.0,2.0,53,0.00,,,0.00,meteohub,2013-02-03 06:12:00,
2013-02-03 00:17:00,50.4,33.8,30.32,NNW,343,1.0,2.0,53,0.00,,,0.00,meteohub,2013-02-03 06:17:00,
2013-02-03 00:22:00,50.2,34.2,30.32,NNW,343,2.0,3.0,54,0.00,,,0.00,meteohub,2013-02-03 06:22:00,
2013-02-03 00:29:00,49.6,34.2,30.32,NNW,343,1.0,3.0,55,0.00,,,0.00,meteohub,2013-02-03 06:29:00,
2013-02-03 00:35:00,49.5,34.0,30.32,NNW,343,2.0,3.0,55,0.00,,,0.00,meteohub,2013-02-03 06:35:00,
2013-02-03 00:44:00,49.3,33.8,30.33,NNW,343,2.0,3.0,55,0.00,,,0.00,meteohub,2013-02-03 06:44:00,
2013-02-03 00:50:00,49.3,33.8,30.32,NNW,343,2.0,4.0,55,0.00,,,0.00,meteohub,2013-02-03 06:50:00,
2013-02-03 00:58:00,49.3,33.3,30.33,NNW,343,0.0,4.0,54,0.00,,,0.00,meteohub,2013-02-03 06:58:00,
2013-02-03 01:03:00,49.5,33.4,30.32,NNW,343,0.0,3.0,54,0.00,,,0.00,meteohub,2013-02-03 07:03:00,
2013-02-03 01:12:00,49.6,33.6,30.33,NNW,343,0.0,2.0,54,0.00,,,0.00,meteohub,2013-02-03 07:12:00,
2013-02-03 01:19:00,49.6,33.6,30.33,NNW,343,2.0,2.0,54,0.00,,,0.00,meteohub,2013-02-03 07:19:00,
2013-02-03 01:27:00,49.8,33.4,30.33,NNW,343,0.0,3.0,53,0.00,,,0.00,meteohub,2013-02-03 07:27:00,
2013-02-03 01:36:00,50.0,33.1,30.33,NNW,343,2.0,3.0,52,0.00,,,0.00,meteohub,2013-02-03 07:36:00,
2013-02-03 01:52:00,50.4,32.9,30.33,NNW,343,0.0,3.0,51,0.00,,,0.00,meteohub,2013-02-03 07:52:00,
2013-02-03 01:59:00,50.4,32.9,30.33,NNW,343,1.0,2.0,51,0.00,,,0.00,meteohub,2013-02-03 07:59:00,
2013-02-03 02:04:00,50.4,33.4,30.33,NNW,343,1.0,3.0,52,0.00,,,0.00,meteohub,2013-02-03 08:04:00,
2013-02-03 02:10:00,50.2,33.6,30.33,NNW,343,2.0,3.0,53,0.00,,,0.00,meteohub,2013-02-03 08:10:00,
2013-02-03 02:15:00,49.6,33.3,30.33,NNW,343,3.0,3.0,53,0.00,,,0.00,meteohub,2013-02-03 08:15:00,
2013-02-03 02:21:00,49.5,33.4,30.32,NNW,343,2.0,3.0,54,0.00,,,0.00,meteohub,2013-02-03 08:21:00,
2013-02-03 02:28:00,48.9,33.4,30.32,NNW,343,2.0,3.0,55,0.00,,,0.00,meteohub,2013-02-03 08:28:00,
2013-02-03 02:37:00,48.4,33.4,30.32,NNW,343,3.0,3.0,56,0.00,,,0.00,meteohub,2013-02-03 08:37:00,
2013-02-03 02:42:00,48.2,33.3,30.32,NW,319,1.0,4.0,56,0.00,,,0.00,meteohub,2013-02-03 08:42:00,
2013-02-03 02:48:00,47.8,33.3,30.32,NW,319,2.0,4.0,57,0.00,,,0.00,meteohub,2013-02-03 08:48:00,
2013-02-03 02:54:00,47.7,33.6,30.32,NW,319,2.0,4.0,58,0.00,,,0.00,meteohub,2013-02-03 08:54:00,
2013-02-03 02:59:00,47.7,34.0,30.32,NW,319,0.0,3.0,59,0.00,,,0.00,meteohub,2013-02-03 08:59:00,
2013-02-03 03:07:00,47.7,34.0,30.32,NW,319,2.0,3.0,59,0.00,,,0.00,meteohub,2013-02-03 09:07:00,
2013-02-03 03:12:00,47.7,34.0,30.32,NW,319,3.0,3.0,59,0.00,,,0.00,meteohub,2013-02-03 09:12:00,
2013-02-03 03:19:00,47.7,34.0,30.32,NW,304,1.0,5.0,59,0.00,,,0.00,meteohub,2013-02-03 09:19:00,
2013-02-03 03:25:00,47.5,34.3,30.32,NW,304,1.0,5.0,60,0.00,,,0.00,meteohub,2013-02-03 09:25:00,
2013-02-03 03:30:00,47.3,34.2,30.31,NW,304,2.0,4.0,60,0.00,,,0.00,meteohub,2013-02-03 09:30:00,
2013-02-03 03:36:00,47.1,34.3,30.32,NW,304,3.0,4.0,61,0.00,,,0.00,meteohub,2013-02-03 09:36:00,
2013-02-03 03:42:00,46.9,34.2,30.32,NW,304,3.0,3.0,61,0.00,,,0.00,meteohub,2013-02-03 09:42:00,
2013-02-03 03:48:00,46.8,34.0,30.31,NW,304,2.0,4.0,61,0.00,,,0.00,meteohub,2013-02-03 09:48:00,
2013-02-03 03:56:00,46.9,34.5,30.31,NW,304,1.0,4.0,62,0.00,,,0.00,meteohub,2013-02-03 09:56:00,
2013-02-03 04:02:00,46.9,34.5,30.30,NW,304,2.0,4.0,62,0.00,,,0.00,meteohub,2013-02-03 10:02:00,
2013-02-03 04:11:00,46.9,34.5,30.30,WNW,298,2.0,4.0,62,0.00,,,0.00,meteohub,2013-02-03 10:11:00,
2013-02-03 04:17:00,46.8,34.9,30.30,WNW,297,2.0,5.0,63,0.00,,,0.00,meteohub,2013-02-03 10:17:00,
2013-02-03 04:22:00,46.6,34.7,30.30,WNW,297,3.0,5.0,63,0.00,,,0.00,meteohub,2013-02-03 10:22:00,
2013-02-03 04:30:00,46.6,34.7,30.30,WNW,297,2.0,5.0,63,0.00,,,0.00,meteohub,2013-02-03 10:30:00,
2013-02-03 04:38:00,46.6,34.7,30.30,WNW,297,2.0,5.0,63,0.00,,,0.00,meteohub,2013-02-03 10:38:00,
2013-02-03 04:45:00,46.8,34.9,30.30,WNW,297,2.0,4.0,63,0.00,,,0.00,meteohub,2013-02-03 10:45:00,
2013-02-03 04:54:00,46.9,34.5,30.29,WNW,297,0.0,3.0,62,0.00,,,0.00,meteohub,2013-02-03 10:54:00,
2013-02-03 05:04:00,46.9,34.5,30.29,WNW,297,1.0,2.0,62,0.00,,,0.00,meteohub,2013-02-03 11:04:00,
2013-02-03 05:15:00,46.9,34.2,30.29,WNW,297,0.0,3.0,61,0.00,,,0.00,meteohub,2013-02-03 11:15:00,
2013-02-03 05:22:00,46.8,34.5,30.30,WNW,297,4.0,4.0,62,0.00,,,0.00,meteohub,2013-02-03 11:22:00,
2013-02-03 05:33:00,45.7,34.5,30.29,WNW,289,5.0,5.0,65,0.00,,,0.00,meteohub,2013-02-03 11:33:00,
2013-02-03 05:39:00,45.3,34.7,30.29,WNW,290,0.0,6.0,66,0.00,,,0.00,meteohub,2013-02-03 11:39:00,
2013-02-03 05:46:00,45.1,34.5,30.29,WNW,290,2.0,6.0,66,0.00,,,0.00,meteohub,2013-02-03 11:46:00,
2013-02-03 05:56:00,45.3,34.7,30.29,WNW,290,2.0,3.0,66,0.00,,,0.00,meteohub,2013-02-03 11:56:00,
2013-02-03 06:02:00,45.5,34.3,30.29,WNW,290,3.0,3.0,65,0.00,,,0.00,meteohub,2013-02-03 12:02:00,
2013-02-03 06:09:00,45.7,34.5,30.30,WNW,290,3.0,4.0,65,0.00,,,0.00,meteohub,2013-02-03 12:09:00,
2013-02-03 06:14:00,45.7,34.5,30.30,WNW,290,3.0,4.0,65,0.00,,,0.00,meteohub,2013-02-03 12:14:00,
2013-02-03 06:20:00,45.5,34.3,30.30,WNW,290,3.0,5.0,65,0.00,,,0.00,meteohub,2013-02-03 12:20:00,
2013-02-03 06:25:00,45.5,34.3,30.30,WNW,290,3.0,5.0,65,0.00,,,0.00,meteohub,2013-02-03 12:25:00,
2013-02-03 06:35:00,45.5,34.0,30.30,WNW,290,4.0,4.0,64,0.00,,,0.00,meteohub,2013-02-03 12:35:00,
2013-02-03 06:41:00,45.3,34.3,30.30,WNW,290,4.0,4.0,65,0.00,,,0.00,meteohub,2013-02-03 12:41:00,
2013-02-03 06:52:00,45.0,34.3,30.30,WNW,290,3.0,5.0,66,0.00,,,0.00,meteohub,2013-02-03 12:52:00,
2013-02-03 06:59:00,44.8,34.5,30.30,WNW,291,2.0,5.0,67,0.00,,,0.00,meteohub,2013-02-03 12:59:00,
2013-02-03 07:07:00,44.2,34.0,30.30,WNW,291,0.0,5.0,67,0.00,,,0.00,meteohub,2013-02-03 13:07:00,
2013-02-03 07:15:00,44.1,33.8,30.30,WNW,291,0.0,2.0,67,0.00,,,0.00,meteohub,2013-02-03 13:15:00,
2013-02-03 07:23:00,44.1,33.8,30.31,WNW,291,0.0,1.0,67,0.00,,,0.00,meteohub,2013-02-03 13:23:00,
2013-02-03 07:31:00,44.1,33.4,30.31,WNW,290,0.0,0.0,66,0.00,,,0.00,meteohub,2013-02-03 13:31:00,
2013-02-03 07:38:00,44.2,34.0,30.31,WNW,290,3.0,3.0,67,0.00,,,0.00,meteohub,2013-02-03 13:38:00,
2013-02-03 07:45:00,44.1,34.2,30.31,WNW,290,1.0,4.0,68,0.00,,,0.00,meteohub,2013-02-03 13:45:00,
2013-02-03 07:52:00,43.7,34.2,30.32,WNW,290,0.0,4.0,69,0.00,,,0.00,meteohub,2013-02-03 13:52:00,
2013-02-03 07:59:00,43.7,34.2,30.32,WNW,290,0.0,4.0,69,0.00,,,0.00,meteohub,2013-02-03 13:59:00,
2013-02-03 08:05:00,43.7,34.5,30.32,WNW,290,1.0,3.0,70,0.00,,,0.00,meteohub,2013-02-03 14:05:00,
2013-02-03 08:12:00,43.7,34.5,30.32,WNW,290,1.0,3.0,70,0.00,,,0.00,meteohub,2013-02-03 14:12:00,
2013-02-03 08:17:00,43.9,34.7,30.32,WNW,290,0.0,3.0,70,0.00,,,0.00,meteohub,2013-02-03 14:17:00,
2013-02-03 08:22:00,44.2,35.1,30.32,WNW,290,0.0,3.0,70,0.00,,,0.00,meteohub,2013-02-03 14:22:00,
2013-02-03 08:33:00,45.1,35.6,30.32,WNW,290,0.0,1.0,69,0.00,,,0.00,meteohub,2013-02-03 14:33:00,
2013-02-03 08:43:00,46.0,36.1,30.32,WNW,290,0.0,0.0,68,0.00,,,0.00,meteohub,2013-02-03 14:43:00,
2013-02-03 08:49:00,46.6,35.8,30.33,WNW,290,0.0,0.0,66,0.00,,,0.00,meteohub,2013-02-03 14:49:00,
2013-02-03 08:57:00,47.5,36.3,30.32,WNW,290,0.0,2.0,65,0.00,,,0.00,meteohub,2013-02-03 14:57:00,
2013-02-03 09:03:00,48.2,36.7,30.33,WNW,290,0.0,2.0,64,0.00,,,0.00,meteohub,2013-02-03 15:03:00,
2013-02-03 09:09:00,49.1,36.7,30.33,WNW,290,0.0,2.0,62,0.00,,,0.00,meteohub,2013-02-03 15:09:00,
2013-02-03 09:17:00,50.2,37.2,30.32,WNW,290,0.0,2.0,61,0.00,,,0.00,meteohub,2013-02-03 15:17:00,
2013-02-03 09:24:00,51.3,37.8,30.32,WNW,290,0.0,2.0,60,0.00,,,0.00,meteohub,2013-02-03 15:24:00,
2013-02-03 09:34:00,53.2,37.4,30.32,WNW,290,0.0,0.0,55,0.00,,,0.00,meteohub,2013-02-03 15:34:00,
2013-02-03 09:44:00,55.4,37.0,30.32,WNW,290,0.0,0.0,50,0.00,,,0.00,meteohub,2013-02-03 15:44:00,
2013-02-03 10:01:00,59.4,36.9,30.32,WNW,290,0.0,0.0,43,0.00,,,0.00,meteohub,2013-02-03 16:01:00,
2013-02-03 10:14:00,61.2,36.7,30.32,WNW,290,0.0,3.0,40,0.00,,,0.00,meteohub,2013-02-03 16:14:00,
2013-02-03 10:29:00,61.9,37.2,30.32,WNW,290,0.0,4.0,40,0.00,,,0.00,meteohub,2013-02-03 16:29:00,
2013-02-03 10:34:00,62.1,36.9,30.32,WSW,254,4.0,5.0,39,0.00,,,0.00,meteohub,2013-02-03 16:34:00,
2013-02-03 10:48:00,63.1,36.5,30.31,WSW,256,0.0,4.0,37,0.00,,,0.00,meteohub,2013-02-03 16:48:00,
2013-02-03 10:57:00,63.9,36.3,30.31,SSW,204,1.0,4.0,36,0.00,,,0.00,meteohub,2013-02-03 16:57:00,
2013-02-03 11:13:00,64.9,35.1,30.30,South,182,0.0,4.0,33,0.00,,,0.00,meteohub,2013-02-03 17:13:00,
2013-02-03 11:20:00,65.3,34.7,30.30,South,190,1.0,4.0,32,0.00,,,0.00,meteohub,2013-02-03 17:20:00,
2013-02-03 11:26:00,65.8,34.3,30.30,SW,215,4.0,5.0,31,0.00,,,0.00,meteohub,2013-02-03 17:26:00,
2013-02-03 11:34:00,66.0,34.5,30.30,SW,231,0.0,7.0,31,0.00,,,0.00,meteohub,2013-02-03 17:34:00,
2013-02-03 11:44:00,66.7,34.3,30.30,SW,233,2.0,6.0,30,0.00,,,0.00,meteohub,2013-02-03 17:44:00,
2013-02-03 11:50:00,66.9,34.5,30.29,SSW,209,0.0,6.0,30,0.00,,,0.00,meteohub,2013-02-03 17:50:00,
2013-02-03 11:55:00,67.3,34.7,30.29,South,180,2.0,6.0,30,0.00,,,0.00,meteohub,2013-02-03 17:55:00,
2013-02-03 12:05:00,67.8,32.5,30.28,SSE,157,3.0,5.0,27,0.00,,,0.00,meteohub,2013-02-03 18:05:00,
2013-02-03 12:17:00,67.3,31.3,30.28,SE,138,2.0,7.0,26,0.00,,,0.00,meteohub,2013-02-03 18:17:00,
2013-02-03 12:25:00,67.1,30.0,30.27,SE,144,0.0,8.0,25,0.00,,,0.00,meteohub,2013-02-03 18:25:00,
2013-02-03 12:34:00,67.8,30.7,30.26,South,185,1.0,8.0,25,0.00,,,0.00,meteohub,2013-02-03 18:34:00,
2013-02-03 12:39:00,67.8,30.7,30.26,South,185,0.0,8.0,25,0.00,,,0.00,meteohub,2013-02-03 18:39:00,
2013-02-03 12:47:00,67.6,31.5,30.25,SSE,162,5.0,7.0,26,0.00,,,0.00,meteohub,2013-02-03 18:47:00,
2013-02-03 12:57:00,67.6,31.5,30.25,South,180,3.0,7.0,26,0.00,,,0.00,meteohub,2013-02-03 18:57:00,
2013-02-03 13:02:00,67.8,30.7,30.25,SW,229,3.0,6.0,25,0.00,,,0.00,meteohub,2013-02-03 19:02:00,
2013-02-03 13:08:00,67.8,30.7,30.24,ESE,121,5.0,7.0,25,0.00,,,0.00,meteohub,2013-02-03 19:08:00,
2013-02-03 13:14:00,68.2,31.1,30.24,South,180,4.0,7.0,25,0.00,,,0.00,meteohub,2013-02-03 19:14:00,
2013-02-03 13:22:00,68.5,29.3,30.23,SSE,167,1.0,8.0,23,0.00,,,0.00,meteohub,2013-02-03 19:22:00,
2013-02-03 13:28:00,69.4,30.0,30.23,SSW,212,5.0,8.0,23,0.00,,,0.00,meteohub,2013-02-03 19:28:00,
2013-02-03 13:33:00,69.1,29.7,30.22,SSE,166,0.0,8.0,23,0.00,,,0.00,meteohub,2013-02-03 19:33:00,
2013-02-03 13:42:00,69.3,28.8,30.22,South,169,3.0,9.0,22,0.00,,,0.00,meteohub,2013-02-03 19:42:00,
2013-02-03 13:50:00,68.2,27.9,30.21,SSE,160,3.0,12.0,22,0.00,,,0.00,meteohub,2013-02-03 19:50:00,
2013-02-03 13:56:00,67.8,28.6,30.21,SSE,150,0.0,12.0,23,0.00,,,0.00,meteohub,2013-02-03 19:56:00,
2013-02-03 14:03:00,68.5,28.2,30.20,South,184,7.0,12.0,22,0.00,,,0.00,meteohub,2013-02-03 20:03:00,
2013-02-03 14:09:00,68.5,28.2,30.20,South,184,0.0,10.0,22,0.00,,,0.00,meteohub,2013-02-03 20:09:00,
2013-02-03 14:20:00,68.9,28.4,30.19,SE,146,11.0,11.0,22,0.00,,,0.00,meteohub,2013-02-03 20:20:00,
2013-02-03 14:27:00,69.1,27.5,30.19,SSW,194,3.0,13.0,21,0.00,,,0.00,meteohub,2013-02-03 20:27:00,
2013-02-03 14:35:00,69.1,27.5,30.18,SSE,147,4.0,13.0,21,0.00,,,0.00,meteohub,2013-02-03 20:35:00,
2013-02-03 14:43:00,69.1,28.6,30.18,SSE,163,6.0,13.0,22,0.00,,,0.00,meteohub,2013-02-03 20:43:00,
2013-02-03 14:51:00,69.1,28.6,30.17,SSE,158,1.0,12.0,22,0.00,,,0.00,meteohub,2013-02-03 20:51:00,
2013-02-03 15:00:00,69.3,29.8,30.17,SSW,204,3.0,13.0,23,0.00,,,0.00,meteohub,2013-02-03 21:00:00,
2013-02-03 15:07:00,69.1,29.7,30.16,SE,140,4.0,13.0,23,0.00,,,0.00,meteohub,2013-02-03 21:07:00,
2013-02-03 15:12:00,68.7,28.4,30.16,SSE,150,10.0,13.0,22,0.00,,,0.00,meteohub,2013-02-03 21:12:00,
2013-02-03 15:18:00,68.2,28.9,30.16,SSE,167,6.0,12.0,23,0.00,,,0.00,meteohub,2013-02-03 21:18:00,
2013-02-03 15:34:00,67.8,27.5,30.15,SSE,147,5.0,13.0,22,0.00,,,0.00,meteohub,2013-02-03 21:34:00,
2013-02-03 15:41:00,67.1,28.0,30.15,SSE,166,2.0,13.0,23,0.00,,,0.00,meteohub,2013-02-03 21:41:00,
2013-02-03 15:47:00,66.7,27.7,30.14,SSE,154,5.0,13.0,23,0.00,,,0.00,meteohub,2013-02-03 21:47:00,
2013-02-03 15:53:00,66.9,27.9,30.14,SSE,148,7.0,11.0,23,0.00,,,0.00,meteohub,2013-02-03 21:53:00,
2013-02-03 15:59:00,66.7,28.8,30.14,SSE,167,1.0,11.0,24,0.00,,,0.00,meteohub,2013-02-03 21:59:00,
2013-02-03 16:05:00,66.7,28.8,30.14,SSW,196,6.0,10.0,24,0.00,,,0.00,meteohub,2013-02-03 22:05:00,
2013-02-03 16:15:00,66.6,28.6,30.13,South,176,3.0,11.0,24,0.00,,,0.00,meteohub,2013-02-03 22:15:00,
2013-02-03 16:20:00,66.4,28.4,30.13,South,180,5.0,11.0,24,0.00,,,0.00,meteohub,2013-02-03 22:20:00,
2013-02-03 16:26:00,66.2,27.3,30.13,South,189,5.0,11.0,23,0.00,,,0.00,meteohub,2013-02-03 22:26:00,
2013-02-03 16:33:00,65.8,28.0,30.12,SE,143,7.0,8.0,24,0.00,,,0.00,meteohub,2013-02-03 22:33:00,
2013-02-03 16:38:00,65.5,28.8,30.12,SSE,155,5.0,9.0,25,0.00,,,0.00,meteohub,2013-02-03 22:38:00,
2013-02-03 16:44:00,65.3,28.6,30.12,SSE,163,3.0,9.0,25,0.00,,,0.00,meteohub,2013-02-03 22:44:00,
2013-02-03 16:52:00,65.1,29.3,30.12,SSE,161,2.0,10.0,26,0.00,,,0.00,meteohub,2013-02-03 22:52:00,
2013-02-03 16:58:00,64.9,29.3,30.11,South,174,3.0,9.0,26,0.00,,,0.00,meteohub,2013-02-03 22:58:00,
2013-02-03 17:07:00,64.8,29.1,30.11,South,169,3.0,8.0,26,0.00,,,0.00,meteohub,2013-02-03 23:07:00,
2013-02-03 17:12:00,64.6,28.9,30.11,SSE,152,2.0,8.0,26,0.00,,,0.00,meteohub,2013-02-03 23:12:00,
2013-02-03 17:19:00,64.2,29.5,30.11,SSE,155,5.0,8.0,27,0.00,,,0.00,meteohub,2013-02-03 23:19:00,
2013-02-03 17:27:00,64.0,29.3,30.10,SSE,167,2.0,7.0,27,0.00,,,0.00,meteohub,2013-02-03 23:27:00,
2013-02-03 17:35:00,63.9,29.3,30.10,SSE,161,3.0,6.0,27,0.00,,,0.00,meteohub,2013-02-03 23:35:00,
2013-02-03 17:46:00,63.5,28.9,30.10,SSE,166,2.0,6.0,27,0.00,,,0.00,meteohub,2013-02-03 23:46:00,
2013-02-03 17:52:00,63.3,28.8,30.10,SSE,163,4.0,6.0,27,0.00,,,0.00,meteohub,2013-02-03 23:52:00,
2013-02-03 17:57:00,63.1,28.6,30.09,SSE,160,2.0,6.0,27,0.00,,,0.00,meteohub,2013-02-03 23:57:00,
2013-02-03 18:07:00,62.8,29.1,30.09,SSE,157,2.0,6.0,28,0.00,,,0.00,meteohub,2013-02-04 00:07:00,
2013-02-03 18:16:00,62.4,28.9,30.09,SSE,159,0.0,5.0,28,0.00,,,0.00,meteohub,2013-02-04 00:16:00,
2013-02-03 18:29:00,61.9,29.3,30.09,SSE,159,0.0,4.0,29,0.00,,,0.00,meteohub,2013-02-04 00:29:00,
2013-02-03 18:36:00,61.3,29.7,30.10,SSE,159,0.0,2.0,30,0.00,,,0.00,meteohub,2013-02-04 00:36:00,
2013-02-03 18:42:00,61.2,29.5,30.10,SSE,159,0.0,2.0,30,0.00,,,0.00,meteohub,2013-02-04 00:42:00,
2013-02-03 18:51:00,61.0,30.2,30.10,SSE,159,0.0,0.0,31,0.00,,,0.00,meteohub,2013-02-04 00:51:00,
2013-02-03 18:57:00,60.6,29.8,30.10,SSE,159,0.0,2.0,31,0.00,,,0.00,meteohub,2013-02-04 00:57:00,
2013-02-03 19:02:00,60.4,30.4,30.10,SSE,159,1.0,2.0,32,0.00,,,0.00,meteohub,2013-02-04 01:02:00,
2013-02-03 19:11:00,60.3,29.5,30.10,SSE,159,1.0,2.0,31,0.00,,,0.00,meteohub,2013-02-04 01:11:00,
2013-02-03 19:17:00,60.3,30.2,30.09,SSE,159,1.0,2.0,32,0.00,,,0.00,meteohub,2013-02-04 01:17:00,
2013-02-03 19:23:00,60.1,30.2,30.09,SSE,160,1.0,3.0,32,0.00,,,0.00,meteohub,2013-02-04 01:23:00,
2013-02-03 19:28:00,59.9,30.7,30.09,SSE,164,3.0,4.0,33,0.00,,,0.00,meteohub,2013-02-04 01:28:00,
2013-02-03 19:34:00,59.7,30.6,30.09,SSE,161,2.0,5.0,33,0.00,,,0.00,meteohub,2013-02-04 01:34:00,
2013-02-03 19:43:00,59.7,30.6,30.08,SSE,164,0.0,5.0,33,0.00,,,0.00,meteohub,2013-02-04 01:43:00,
2013-02-03 19:49:00,59.7,30.6,30.08,South,169,1.0,4.0,33,0.00,,,0.00,meteohub,2013-02-04 01:49:00,
2013-02-03 19:56:00,59.5,31.1,30.08,SSE,163,2.0,4.0,34,0.00,,,0.00,meteohub,2013-02-04 01:56:00,
2013-02-03 20:06:00,59.2,30.7,30.08,SSE,164,2.0,4.0,34,0.00,,,0.00,meteohub,2013-02-04 02:06:00,
2013-02-03 20:12:00,59.0,31.5,30.08,South,169,2.0,4.0,35,0.00,,,0.00,meteohub,2013-02-04 02:12:00,
2013-02-03 20:17:00,58.8,31.3,30.08,SSE,168,3.0,4.0,35,0.00,,,0.00,meteohub,2013-02-04 02:17:00,
2013-02-03 20:22:00,58.8,31.3,30.08,South,169,2.0,4.0,35,0.00,,,0.00,meteohub,2013-02-04 02:22:00,
2013-02-03 20:31:00,58.6,31.8,30.08,South,171,4.0,5.0,36,0.00,,,0.00,meteohub,2013-02-04 02:31:00,
2013-02-03 20:40:00,58.6,31.8,30.08,South,174,1.0,5.0,36,0.00,,,0.00,meteohub,2013-02-04 02:40:00,
2013-02-03 20:52:00,58.6,31.8,30.07,SSE,165,3.0,5.0,36,0.00,,,0.00,meteohub,2013-02-04 02:52:00,
2013-02-03 21:00:00,58.6,31.8,30.06,SSE,165,2.0,6.0,36,0.00,,,0.00,meteohub,2013-02-04 03:00:00,
2013-02-03 21:06:00,58.6,31.8,30.06,SSE,161,2.0,6.0,36,0.00,,,0.00,meteohub,2013-02-04 03:06:00,
2013-02-03 21:17:00,58.8,32.0,30.06,South,169,4.0,7.0,36,0.00,,,0.00,meteohub,2013-02-04 03:17:00,
2013-02-03 21:23:00,58.8,31.3,30.06,SSE,160,3.0,7.0,35,0.00,,,0.00,meteohub,2013-02-04 03:23:00,
2013-02-03 21:42:00,58.8,32.0,30.05,SSE,162,8.0,9.0,36,0.00,,,0.00,meteohub,2013-02-04 03:42:00,
2013-02-03 21:48:00,58.6,31.8,30.05,SSE,166,3.0,9.0,36,0.00,,,0.00,meteohub,2013-02-04 03:48:00,
2013-02-03 21:55:00,58.6,31.1,30.05,South,171,3.0,8.0,35,0.00,,,0.00,meteohub,2013-02-04 03:55:00,
2013-02-03 22:01:00,58.5,31.6,30.04,South,171,4.0,8.0,36,0.00,,,0.00,meteohub,2013-02-04 04:01:00,
2013-02-03 22:07:00,58.5,31.6,30.04,SSE,159,1.0,8.0,36,0.00,,,0.00,meteohub,2013-02-04 04:07:00,
2013-02-03 22:12:00,58.3,31.5,30.04,SSE,159,2.0,5.0,36,0.00,,,0.00,meteohub,2013-02-04 04:12:00,
2013-02-03 22:24:00,57.7,31.6,30.04,SSE,154,0.0,5.0,37,0.00,,,0.00,meteohub,2013-02-04 04:24:00,
2013-02-03 22:32:00,57.4,31.3,30.04,SSE,159,1.0,5.0,37,0.00,,,0.00,meteohub,2013-02-04 04:32:00,
2013-02-03 22:43:00,57.0,31.6,30.03,SSE,168,2.0,7.0,38,0.00,,,0.00,meteohub,2013-02-04 04:43:00,
2013-02-03 22:50:00,57.0,31.6,30.02,SSE,159,3.0,7.0,38,0.00,,,0.00,meteohub,2013-02-04 04:50:00,
2013-02-03 22:57:00,57.0,31.6,30.02,SSE,161,4.0,7.0,38,0.00,,,0.00,meteohub,2013-02-04 04:57:00,
2013-02-03 23:01:00,57.0,31.6,30.02,South,169,2.0,7.0,38,0.00,,,0.00,meteohub,2013-02-04 05:01:00,
2013-02-03 23:07:00,57.0,31.6,30.02,South,170,2.0,7.0,38,0.00,,,0.00,meteohub,2013-02-04 05:07:00,
2013-02-03 23:08:00,57.0,31.6,30.02,South,169,4.0,7.0,38,0.00,,,0.00,meteohub,2013-02-04 05:08:00,
2013-02-03 23:13:00,57.4,32.0,30.01,SSE,163,4.0,8.0,38,0.00,,,0.00,meteohub,2013-02-04 05:13:00,
2013-02-03 23:19:00,57.6,32.2,30.01,South,172,3.0,9.0,38,0.00,,,0.00,meteohub,2013-02-04 05:19:00,
2013-02-03 23:22:00,57.6,32.2,30.01,South,171,6.0,9.0,38,0.00,,,0.00,meteohub,2013-02-04 05:22:00,
2013-02-03 23:27:00,57.7,32.4,30.01,South,171,4.0,9.0,38,0.00,,,0.00,meteohub,2013-02-04 05:27:00,
2013-02-03 23:34:00,57.7,32.4,30.01,SSE,153,6.0,9.0,38,0.00,,,0.00,meteohub,2013-02-04 05:34:00,
2013-02-03 23:42:00,57.7,32.4,30.01,SSE,161,7.0,8.0,38,0.00,,,0.00,meteohub,2013-02-04 05:42:00,
2013-02-03 23:47:00,57.7,32.4,30.00,South,171,5.0,8.0,38,0.00,,,0.00,meteohub,2013-02-04 05:47:00,
2013-02-03 23:52:00,57.9,32.5,30.00,SSE,157,7.0,8.0,38,0.00,,,0.00,meteohub,2013-02-04 05:52:00,
2013-02-03 23:57:00,57.7,32.4,30.00,SSE,157,1.0,8.0,38,0.00,,,0.00,meteohub,2013-02-04 05:57:00,